RYR378 EGGD-EGNT

Flight info

Callsign RYR378
Flight time 0h 51m
Altitude 27000
Route BCN P69 DIZIM DCT KISWO DCT AVTIC DCT ANJAK N38 NOKIN UP17 POL
Aircraft B738/M-SDE2E3FGHIRWXY/LB1

Departure

Time 2026-05-05 20:43
Airport Bristol Airport (EGGD)

Arrival

Time 2026-05-05 21:35
Airport Newcastle International Airport (EGNT)
Time Latitude Longitude Altitude Speed Heading
2026-05-05 20:25 51.38518 -2.71141 622 ft 0 kts 357°
2026-05-05 20:35 51.38505 -2.71140 619 ft 2 kts 356°
2026-05-05 20:35 51.38488 -2.71138 626 ft 2 kts 355°
2026-05-05 20:35 51.38472 -2.71135 622 ft 2 kts 346°
2026-05-05 20:35 51.38459 -2.71121 629 ft 2 kts 274°
2026-05-05 20:36 51.38459 -2.71112 629 ft 0 kts 266°
2026-05-05 20:38 51.38458 -2.71133 623 ft 5 kts 266°
2026-05-05 20:38 51.38455 -2.71225 615 ft 11 kts 266°
2026-05-05 20:38 51.38449 -2.71377 612 ft 16 kts 266°
2026-05-05 20:38 51.38441 -2.71566 615 ft 18 kts 266°
2026-05-05 20:39 51.38432 -2.71767 605 ft 18 kts 267°
2026-05-05 20:39 51.38431 -2.71965 605 ft 17 kts 270°
2026-05-05 20:39 51.38427 -2.72155 605 ft 17 kts 266°
2026-05-05 20:39 51.38420 -2.72339 609 ft 16 kts 266°
2026-05-05 20:40 51.38413 -2.72515 615 ft 16 kts 266°
2026-05-05 20:40 51.38407 -2.72685 618 ft 15 kts 267°
2026-05-05 20:40 51.38403 -2.72794 610 ft 15 kts 266°
2026-05-05 20:40 51.38396 -2.72957 604 ft 15 kts 266°
2026-05-05 20:41 51.38390 -2.73116 605 ft 12 kts 266°
2026-05-05 20:41 51.38380 -2.73259 623 ft 9 kts 249°
2026-05-05 20:41 51.38336 -2.73331 614 ft 9 kts 205°
2026-05-05 20:41 51.38295 -2.73342 617 ft 8 kts 180°
2026-05-05 20:42 51.38246 -2.73324 620 ft 7 kts 154°
2026-05-05 20:42 51.38217 -2.73263 622 ft 7 kts 103°
2026-05-05 20:42 51.38217 -2.73186 628 ft 7 kts 86°
2026-05-05 20:42 51.38221 -2.73109 628 ft 7 kts 85°
2026-05-05 20:43 51.38236 -2.72787 629 ft 67 kts 86°
2026-05-05 20:43 51.38280 -2.71589 610 ft 146 kts 85°
2026-05-05 20:43 51.38352 -2.69717 1078 ft 173 kts 83°
2026-05-05 20:43 51.38478 -2.67810 2226 ft 171 kts 78°
2026-05-05 20:44 51.38667 -2.66002 3351 ft 160 kts 75°
2026-05-05 20:44 51.38942 -2.64264 4082 ft 167 kts 71°
2026-05-05 20:44 51.39335 -2.62376 4500 ft 189 kts 68°
2026-05-05 20:44 51.39815 -2.60401 5300 ft 185 kts 65°
2026-05-05 20:45 51.40787 -2.56902 7063 ft 172 kts 63°
2026-05-05 20:45 51.41339 -2.55082 7193 ft 187 kts 62°
2026-05-05 20:45 51.41944 -2.53164 6747 ft 204 kts 59°
2026-05-05 20:46 51.43012 -2.51630 6243 ft 215 kts 17°
2026-05-05 20:46 51.44487 -2.51825 6113 ft 222 kts 333°
2026-05-05 20:46 51.45515 -2.53660 6006 ft 230 kts 290°
2026-05-05 20:46 51.45871 -2.56261 6016 ft 253 kts 289°
2026-05-05 20:47 51.46656 -2.58914 6003 ft 269 kts 299°
2026-05-05 20:47 51.47415 -2.61699 6004 ft 273 kts 293°
2026-05-05 20:47 51.48138 -2.64501 5996 ft 271 kts 295°
2026-05-05 20:47 51.48947 -2.67227 5989 ft 269 kts 298°
2026-05-05 20:48 51.49829 -2.69861 6003 ft 268 kts 300°
2026-05-05 20:48 51.50769 -2.72445 6002 ft 268 kts 302°
2026-05-05 20:48 51.51731 -2.74963 6001 ft 268 kts 303°
2026-05-05 20:48 51.52731 -2.77500 6003 ft 268 kts 304°
2026-05-05 20:49 51.53740 -2.80019 6001 ft 268 kts 304°
2026-05-05 20:49 51.54760 -2.82534 6026 ft 269 kts 305°
2026-05-05 20:49 51.55788 -2.85051 6037 ft 270 kts 304°
2026-05-05 20:49 51.56821 -2.87578 6041 ft 270 kts 304°
2026-05-05 20:50 51.57857 -2.90110 6046 ft 271 kts 304°
2026-05-05 20:50 51.58891 -2.92640 6049 ft 270 kts 304°
2026-05-05 20:50 51.59911 -2.95137 6043 ft 270 kts 304°
2026-05-05 20:50 51.60941 -2.97660 6042 ft 269 kts 304°
2026-05-05 20:51 51.61963 -3.00169 6041 ft 267 kts 304°
2026-05-05 20:51 51.62979 -3.02665 6047 ft 265 kts 304°
2026-05-05 20:51 51.63992 -3.05150 6048 ft 265 kts 304°
2026-05-05 20:51 51.65001 -3.07622 6048 ft 264 kts 305°
2026-05-05 20:52 51.65996 -3.10058 6049 ft 263 kts 304°
2026-05-05 20:52 51.67001 -3.12523 6044 ft 263 kts 304°
2026-05-05 20:52 51.68009 -3.14994 6048 ft 264 kts 304°
2026-05-05 20:52 51.69016 -3.17468 6048 ft 264 kts 304°
2026-05-05 20:53 51.70026 -3.19954 6047 ft 266 kts 304°
2026-05-05 20:53 51.71040 -3.22449 6043 ft 266 kts 304°
2026-05-05 20:53 51.72249 -3.24668 6028 ft 264 kts 327°
2026-05-05 20:53 51.73950 -3.25706 6126 ft 264 kts 353°
2026-05-05 20:54 51.75764 -3.25635 6796 ft 266 kts
2026-05-05 20:54 51.77613 -3.25184 7626 ft 267 kts
2026-05-05 20:54 51.79454 -3.24695 8502 ft 269 kts
2026-05-05 20:54 51.81325 -3.24203 9276 ft 275 kts
2026-05-05 20:55 51.83233 -3.23701 10068 ft 280 kts
2026-05-05 20:55 51.85196 -3.23195 10544 ft 296 kts
2026-05-05 20:55 51.87324 -3.22656 10724 ft 322 kts
2026-05-05 20:55 51.89615 -3.22077 10930 ft 343 kts
2026-05-05 20:56 51.91986 -3.21497 11465 ft 352 kts
2026-05-05 20:56 51.94434 -3.20906 12162 ft 357 kts
2026-05-05 20:56 51.96917 -3.20300 12859 ft 362 kts
2026-05-05 20:56 51.99426 -3.19667 13592 ft 366 kts
2026-05-05 20:57 52.01965 -3.19022 14232 ft 371 kts
2026-05-05 20:57 52.04500 -3.18413 14867 ft 374 kts
2026-05-05 20:57 52.07112 -3.18066 15527 ft 377 kts
2026-05-05 20:57 52.09751 -3.17876 16151 ft 381 kts
2026-05-05 20:58 52.12419 -3.17727 16779 ft 385 kts
2026-05-05 20:58 52.15105 -3.17576 17409 ft 389 kts
2026-05-05 20:58 52.17829 -3.17408 18022 ft 393 kts
2026-05-05 20:58 52.20577 -3.17221 18583 ft 396 kts
2026-05-05 20:59 52.23343 -3.17021 19119 ft 400 kts
2026-05-05 20:59 52.26128 -3.16812 19683 ft 402 kts
2026-05-05 20:59 52.28902 -3.16600 20216 ft 405 kts
2026-05-05 20:59 52.31734 -3.16383 20738 ft 408 kts
2026-05-05 21:00 52.34588 -3.16162 21253 ft 411 kts
2026-05-05 21:00 52.37460 -3.15939 21760 ft 414 kts
2026-05-05 21:00 52.40355 -3.15715 22259 ft 418 kts
2026-05-05 21:00 52.43275 -3.15489 22743 ft 421 kts
2026-05-05 21:01 52.46213 -3.15261 23227 ft 424 kts
2026-05-05 21:01 52.49138 -3.15034 23673 ft 427 kts
2026-05-05 21:01 52.52122 -3.14802 24066 ft 429 kts
2026-05-05 21:01 52.55122 -3.14569 24467 ft 432 kts
2026-05-05 21:02 52.58133 -3.14334 24848 ft 434 kts
2026-05-05 21:02 52.61168 -3.14097 25219 ft 437 kts
2026-05-05 21:02 52.64173 -3.13866 25585 ft 439 kts
2026-05-05 21:02 52.67244 -3.13637 25943 ft 441 kts
2026-05-05 21:03 52.70318 -3.13239 26283 ft 446 kts
2026-05-05 21:03 52.73349 -3.12063 26656 ft 450 kts 16°
2026-05-05 21:03 52.76257 -3.10068 27031 ft 453 kts 23°
2026-05-05 21:03 52.79115 -3.07762 27020 ft 458 kts 24°
2026-05-05 21:04 52.81964 -3.05424 27046 ft 456 kts 24°
2026-05-05 21:04 52.84766 -3.03169 27037 ft 451 kts 23°
2026-05-05 21:04 52.87594 -3.00939 27045 ft 450 kts 24°
2026-05-05 21:04 52.90433 -2.98758 27049 ft 449 kts 21°
2026-05-05 21:05 52.93344 -2.96864 27047 ft 449 kts 18°
2026-05-05 21:05 52.96297 -2.95139 27049 ft 449 kts 17°
2026-05-05 21:05 52.99255 -2.93434 27057 ft 450 kts 17°
2026-05-05 21:05 53.02204 -2.91681 27053 ft 451 kts 18°
2026-05-05 21:06 53.05154 -2.89882 27056 ft 452 kts 18°
2026-05-05 21:06 53.08065 -2.87844 27043 ft 455 kts 25°
2026-05-05 21:06 53.10762 -2.85059 27056 ft 457 kts 33°
2026-05-05 21:06 53.13361 -2.81989 27043 ft 458 kts 34°
2026-05-05 21:07 53.15925 -2.78928 27044 ft 459 kts 33°
2026-05-05 21:07 53.18530 -2.75849 27055 ft 459 kts 33°
2026-05-05 21:07 53.21152 -2.72795 27053 ft 460 kts 33°
2026-05-05 21:07 53.23779 -2.69756 27057 ft 460 kts 33°
2026-05-05 21:08 53.26411 -2.66716 27048 ft 460 kts 32°
2026-05-05 21:08 53.29050 -2.63679 27049 ft 460 kts 32°
2026-05-05 21:08 53.31688 -2.60645 27053 ft 460 kts 32°
2026-05-05 21:08 53.34331 -2.57600 27056 ft 460 kts 32°
2026-05-05 21:09 53.36963 -2.54561 27051 ft 460 kts 33°
2026-05-05 21:09 53.39593 -2.51518 27047 ft 459 kts 33°
2026-05-05 21:09 53.42224 -2.48468 27042 ft 459 kts 33°
2026-05-05 21:09 53.44846 -2.45424 27063 ft 459 kts 33°
2026-05-05 21:10 53.47473 -2.42370 27065 ft 458 kts 33°
2026-05-05 21:10 53.50087 -2.39298 27059 ft 458 kts 33°
2026-05-05 21:10 53.52696 -2.36208 27063 ft 458 kts 33°
2026-05-05 21:10 53.55297 -2.33115 27069 ft 458 kts 33°
2026-05-05 21:11 53.57866 -2.30056 27067 ft 458 kts 33°
2026-05-05 21:11 53.60469 -2.26956 27065 ft 458 kts 33°
2026-05-05 21:11 53.63074 -2.23851 27065 ft 458 kts 33°
2026-05-05 21:11 53.65678 -2.20743 27062 ft 458 kts 33°
2026-05-05 21:12 53.68274 -2.17642 27069 ft 458 kts 33°
2026-05-05 21:12 53.70877 -2.14528 27068 ft 458 kts 33°
2026-05-05 21:12 53.73480 -2.11416 27082 ft 458 kts 32°
2026-05-05 21:12 53.76238 -2.08939 27039 ft 442 kts 17°
2026-05-05 21:13 53.79124 -2.07287 26652 ft 434 kts 16°
2026-05-05 21:13 53.81980 -2.05689 26218 ft 429 kts 16°
2026-05-05 21:13 53.84795 -2.04094 25757 ft 424 kts 16°
2026-05-05 21:13 53.87576 -2.02489 25290 ft 421 kts 17°
2026-05-05 21:14 53.90332 -2.00875 24831 ft 417 kts 17°
2026-05-05 21:14 53.93071 -1.99254 24378 ft 415 kts 17°
2026-05-05 21:14 53.95789 -1.97637 23915 ft 412 kts 17°
2026-05-05 21:14 53.98455 -1.96047 23425 ft 410 kts 17°
2026-05-05 21:15 54.01139 -1.94443 22890 ft 407 kts 17°
2026-05-05 21:15 54.03805 -1.92849 22398 ft 404 kts 17°
2026-05-05 21:15 54.06443 -1.91271 21942 ft 400 kts 17°
2026-05-05 21:15 54.09060 -1.89703 21474 ft 397 kts 17°
2026-05-05 21:16 54.11655 -1.88146 21024 ft 393 kts 17°
2026-05-05 21:16 54.14232 -1.86620 20581 ft 390 kts 14°
2026-05-05 21:16 54.16842 -1.85526 20134 ft 384 kts
2026-05-05 21:16 54.19460 -1.84748 19699 ft 380 kts
2026-05-05 21:17 54.22064 -1.84044 19263 ft 378 kts
2026-05-05 21:17 54.24654 -1.83324 18853 ft 375 kts
2026-05-05 21:17 54.27218 -1.82574 18410 ft 373 kts
2026-05-05 21:17 54.29774 -1.81795 17916 ft 371 kts
2026-05-05 21:18 54.32306 -1.81006 17446 ft 368 kts
2026-05-05 21:18 54.34813 -1.80217 17010 ft 365 kts
2026-05-05 21:18 54.37297 -1.79432 16584 ft 361 kts
2026-05-05 21:18 54.39762 -1.78654 16150 ft 358 kts
2026-05-05 21:19 54.42172 -1.77892 15462 ft 355 kts
2026-05-05 21:19 54.44589 -1.77127 14778 ft 351 kts
2026-05-05 21:19 54.46984 -1.76369 14068 ft 348 kts
2026-05-05 21:19 54.49361 -1.75616 13316 ft 345 kts
2026-05-05 21:20 54.51714 -1.74869 12564 ft 342 kts
2026-05-05 21:20 54.54041 -1.74129 11957 ft 335 kts
2026-05-05 21:20 54.56289 -1.73412 11553 ft 323 kts
2026-05-05 21:20 54.58467 -1.72717 11148 ft 313 kts
2026-05-05 21:21 54.60574 -1.72044 10766 ft 304 kts
2026-05-05 21:21 54.62621 -1.71392 10398 ft 295 kts
2026-05-05 21:21 54.64617 -1.70755 10047 ft 287 kts
2026-05-05 21:21 54.66522 -1.70144 9836 ft 273 kts
2026-05-05 21:22 54.68405 -1.69543 9350 ft 271 kts
2026-05-05 21:22 54.70215 -1.68984 9183 ft 258 kts
2026-05-05 21:22 54.71948 -1.68678 9091 ft 243 kts
2026-05-05 21:22 54.73620 -1.68467 9106 ft 240 kts
2026-05-05 21:23 54.75278 -1.68266 9032 ft 236 kts
2026-05-05 21:23 54.76904 -1.68065 8653 ft 235 kts
2026-05-05 21:23 54.78543 -1.67858 8260 ft 236 kts
2026-05-05 21:23 54.80170 -1.67648 7924 ft 233 kts
2026-05-05 21:24 54.81777 -1.67436 7610 ft 230 kts
2026-05-05 21:24 54.83343 -1.67227 7416 ft 222 kts
2026-05-05 21:24 54.84831 -1.67026 7238 ft 212 kts
2026-05-05 21:24 54.86274 -1.66831 7044 ft 205 kts
2026-05-05 21:25 54.87229 -1.66702 6933 ft 203 kts
2026-05-05 21:25 54.89089 -1.66450 6726 ft 202 kts
2026-05-05 21:25 54.90487 -1.66261 6561 ft 201 kts
2026-05-05 21:25 54.91883 -1.66071 6390 ft 200 kts
2026-05-05 21:26 54.92803 -1.65946 6287 ft 200 kts
2026-05-05 21:26 54.94193 -1.65757 6113 ft 200 kts
2026-05-05 21:26 54.95582 -1.65567 5940 ft 200 kts
2026-05-05 21:26 54.96962 -1.65378 5776 ft 199 kts
2026-05-05 21:27 54.98344 -1.65189 5616 ft 198 kts
2026-05-05 21:27 54.99698 -1.65003 5449 ft 191 kts
2026-05-05 21:27 55.01003 -1.64824 5288 ft 185 kts
2026-05-05 21:27 55.02271 -1.64650 5140 ft 181 kts
2026-05-05 21:28 55.03528 -1.64455 5005 ft 182 kts 10°
2026-05-05 21:28 55.04624 -1.63400 4844 ft 185 kts 48°
2026-05-05 21:28 55.05129 -1.61324 4706 ft 194 kts 80°
2026-05-05 21:28 55.05214 -1.58998 4561 ft 194 kts 82°
2026-05-05 21:29 55.05312 -1.56632 4406 ft 196 kts 81°
2026-05-05 21:29 55.05406 -1.54272 4228 ft 193 kts 81°
2026-05-05 21:29 55.05493 -1.51969 4056 ft 187 kts 82°
2026-05-05 21:29 55.05576 -1.49711 3910 ft 186 kts 82°
2026-05-05 21:30 55.05659 -1.47462 3765 ft 187 kts 82°
2026-05-05 21:30 55.05742 -1.45195 3636 ft 187 kts 82°
2026-05-05 21:30 55.05839 -1.42929 3477 ft 187 kts 76°
2026-05-05 21:30 55.06396 -1.40966 3304 ft 178 kts 42°
2026-05-05 21:31 55.07465 -1.39953 3169 ft 177 kts 13°
2026-05-05 21:31 55.08682 -1.40036 3018 ft 179 kts 344°
2026-05-05 21:31 55.09719 -1.41268 2874 ft 186 kts 313°
2026-05-05 21:31 55.10226 -1.43379 2714 ft 196 kts 277°
2026-05-05 21:32 55.09944 -1.45684 2620 ft 202 kts 248°
2026-05-05 21:32 55.09351 -1.47924 2541 ft 204 kts 248°
2026-05-05 21:32 55.08776 -1.50173 2435 ft 202 kts 249°
2026-05-05 21:32 55.08202 -1.52384 2218 ft 197 kts 248°
2026-05-05 21:33 55.07633 -1.54518 1976 ft 192 kts 248°
2026-05-05 21:33 55.07077 -1.56605 1696 ft 185 kts 247°
2026-05-05 21:33 55.06550 -1.58585 1453 ft 174 kts 248°
2026-05-05 21:33 55.06043 -1.60496 1193 ft 172 kts 249°
2026-05-05 21:34 55.05554 -1.62346 964 ft 166 kts 248°
2026-05-05 21:34 55.05064 -1.64175 698 ft 165 kts 248°
2026-05-05 21:34 55.04585 -1.65976 477 ft 161 kts 248°
2026-05-05 21:34 55.04124 -1.67717 259 ft 156 kts 248°
2026-05-05 21:35 55.03717 -1.69261 254 ft 114 kts 245°
2026-05-05 21:35 55.03474 -1.70177 259 ft 52 kts 245°
2026-05-05 21:35 55.03395 -1.70478 260 ft 11 kts 250°
2026-05-05 21:35 55.03397 -1.70599 260 ft 10 kts 297°
2026-05-05 21:36 55.03456 -1.70653 260 ft 10 kts 359°
2026-05-05 21:36 55.03524 -1.70648 260 ft 10 kts
2026-05-05 21:36 55.03582 -1.70611 261 ft 9 kts 57°
2026-05-05 21:36 55.03599 -1.70512 260 ft 5 kts 71°
2026-05-05 21:37 55.03618 -1.70465 260 ft 5 kts 43°
2026-05-05 21:37 55.03653 -1.70441 259 ft 6 kts
2026-05-05 21:37 55.03707 -1.70437 257 ft 9 kts
2026-05-05 21:37 55.03770 -1.70439 255 ft 8 kts 339°
2026-05-05 21:38 55.03779 -1.70508 254 ft 6 kts 236°
2026-05-05 21:38 55.03752 -1.70559 256 ft 6 kts 226°
2026-05-05 21:38 55.03731 -1.70596 257 ft 2 kts 226°
2026-05-05 21:38 55.03727 -1.70605 257 ft 0 kts 226°